Weather History for Kansas City International, MO

Change the Weather History Date:

Wednesday, February 27, 2013

  Actual Average Record
Temperature  
Mean Temperature 32 °F 38 °F  
Max Temperature 35 °F 48 °F 73 °F (1932)
Min Temperature 28 °F 28 °F -13 °F (1934)
Degree Days  
Heating Degree Days 33 27  
Month to date heating degree days 870 855  
Since 1 July heating degree days 3697 4019  
Cooling Degree Days 0 0  
Month to date cooling degree days 0 0  
Year to date cooling degree days 0 0  
Moisture  
Dew Point 24 °F    
Average Humidity 74    
Maximum Humidity 92    
Minimum Humidity 56    
Precipitation  
Precipitation 0.11 in 0.06 in 1.22 in (1900)
Month to date precipitation 1.86 1.40  
Year to date precipitation 2.89 2.47  
Snow  
Snow 1.10 in 0.20 in 11.80 in (1900)
Month to date snowfall 20.5 5.3  
Since 1 July snowfall 25.2 16.1  
Snow Depth 10.00 in    
Sea Level Pressure  
Sea Level Pressure 29.93 in    
Wind  
Wind Speed 14 mph (NW)    
Max Wind Speed 22 mph    
Max Gust Speed 28 mph    
Visibility 4 miles    
Events Snow    
T = Trace of Precipitation, MM = Missing Value Source: NWS Daily Summary

Daily Weather History Graph

Daily Weather History Graph

Search for Another Location

Airport:

Trip Planner

Search our weather history database for the weather conditions in past years. The results will help you decide how hot, cold, wet, or windy it might be!

Date:

Astronomy

Feb. 27, 2013 Rise Set
Actual Time 6:54 AM CST 6:09 PM CST
Civil Twilight 6:27 AM CST 6:36 PM CST
Nautical Twilight 5:56 AM CST 7:07 PM CST
Astronomical Twilight 5:25 AM CST 7:38 PM CST
Moon 8:30 PM CST (2/27) 7:31 AM CST (2/27)
Length of Visible Light 12h 09m
Length of Day
11h 15m
Waning Gibbous, 96% of the Moon is Illuminated
Feb 27
Waning Gibbous
Mar 4
Last Quarter
Mar 11
New
Mar 19
First Quarter
Mar 27
Full

Hourly Weather History & Observations

Time (CST) Temp. Windchill Dew Point Humidity Pressure Visibility Wind Dir Wind Speed Gust Speed Precip Events Conditions
12:53 AM 30.0 °F 20.5 °F 27.0 °F 88% 29.86 in 1.8 mi NW 11.5 mph - 0.03 in Snow Light Snow
1:53 AM 28.9 °F 19.8 °F 27.0 °F 92% 29.86 in 1.2 mi NNW 10.4 mph - 0.01 in Snow Light Snow
2:35 AM 28.4 °F 19.1 °F 26.6 °F 93% 29.82 in 1.5 mi NNW 10.4 mph - 0.02 in Snow Light Snow
2:53 AM 28.9 °F 19.8 °F 26.1 °F 89% 29.85 in 1.8 mi NW 10.4 mph - 0.02 in Snow Light Snow
3:03 AM 28.4 °F 19.7 °F 26.6 °F 93% 29.82 in 2.0 mi NW 9.2 mph - 0.00 in Snow Light Snow
3:53 AM 30.0 °F 22.4 °F 27.0 °F 88% 29.85 in 3.0 mi NW 8.1 mph - 0.00 in   Overcast
4:09 AM 30.2 °F 21.9 °F 26.6 °F 86% 29.83 in 2.5 mi WNW 9.2 mph - 0.01 in Snow Light Snow
4:25 AM 30.2 °F 23.4 °F 26.6 °F 86% 29.83 in 3.0 mi WNW 6.9 mph - 0.01 in Snow Light Snow
4:53 AM 30.0 °F 21.1 °F 27.0 °F 88% 29.86 in 4.0 mi WNW 10.4 mph - 0.01 in   Overcast
5:49 AM 28.4 °F 19.7 °F 24.8 °F 86% 29.87 in 2.5 mi WNW 9.2 mph - 0.00 in Snow Light Snow
5:53 AM 28.9 °F 18.6 °F 25.0 °F 85% 29.89 in 2.0 mi WNW 12.7 mph - 0.00 in Snow Light Snow
6:03 AM 28.4 °F 18.0 °F 24.8 °F 86% 29.87 in 2.0 mi WNW 12.7 mph - 0.00 in Snow Light Snow
6:10 AM 28.4 °F 17.0 °F 24.8 °F 86% 29.87 in 1.5 mi WNW 15.0 mph - 0.01 in Snow Light Snow
6:13 AM 28.4 °F 18.5 °F 24.8 °F 86% 29.88 in 1.5 mi WNW 11.5 mph - 0.01 in Snow Light Snow
6:53 AM 28.0 °F 18.1 °F 25.0 °F 88% 29.91 in 1.2 mi WNW 11.5 mph - 0.02 in Snow Light Snow
7:13 AM 28.4 °F 17.5 °F 24.8 °F 86% 29.88 in 0.8 mi WNW 13.8 mph - 0.00 in Snow Light Snow
7:27 AM 28.4 °F 17.5 °F 24.8 °F 86% 29.88 in 1.0 mi WNW 13.8 mph - 0.01 in Snow Light Snow
7:53 AM 28.0 °F 17.0 °F 24.1 °F 85% 29.92 in 1.0 mi WNW 13.8 mph 21.9 mph 0.01 in Snow Light Snow
8:53 AM 28.0 °F 16.1 °F 24.1 °F 85% 29.93 in 1.5 mi WNW 16.1 mph - 0.01 in Snow Light Snow
9:00 AM 28.4 °F 15.1 °F 24.8 °F 86% 29.90 in 1.5 mi WNW 20.7 mph 25.3 mph 0.00 in Snow Light Snow
9:27 AM 28.4 °F 15.1 °F 23.0 °F 80% 29.90 in 1.5 mi WNW 20.7 mph 27.6 mph 0.00 in Snow Light Snow
9:53 AM 28.9 °F 17.3 °F 24.1 °F 82% 29.93 in 1.5 mi WNW 16.1 mph - 0.00 in Snow Light Snow
10:31 AM 28.4 °F 17.5 °F 23.0 °F 80% 29.91 in 2.5 mi WNW 13.8 mph 25.3 mph 0.00 in Snow Light Snow
10:53 AM 28.9 °F 18.6 °F 24.1 °F 82% 29.95 in 1.8 mi WNW 12.7 mph 23.0 mph 0.00 in Snow Light Snow
11:53 AM 30.0 °F 19.5 °F 24.1 °F 79% 29.96 in 1.5 mi WNW 13.8 mph 21.9 mph 0.00 in Snow Light Snow
12:26 PM 30.2 °F 19.3 °F 24.8 °F 80% 29.92 in 3.0 mi WNW 15.0 mph 24.2 mph 0.00 in Snow Light Snow
12:53 PM 30.9 °F 20.7 °F 24.1 °F 76% 29.95 in 3.0 mi NW 13.8 mph 26.5 mph 0.00 in Snow Light Snow
1:53 PM 30.9 °F 19.1 °F 21.9 °F 69% 29.96 in 2.5 mi NW 18.4 mph 25.3 mph 0.00 in Snow Light Snow
2:00 PM 30.2 °F 20.2 °F 23.0 °F 75% 29.94 in 3.0 mi WNW 12.7 mph - 0.00 in Snow Light Snow
2:53 PM 32.0 °F 20.1 °F 21.9 °F 66% 29.96 in 3.0 mi NW 19.6 mph 23.0 mph 0.00 in Snow Light Snow
3:53 PM 34.0 °F 23.8 °F 21.9 °F 61% 29.97 in 9.0 mi NW 16.1 mph 24.2 mph 0.00 in   Mostly Cloudy
4:53 PM 35.1 °F 24.8 °F 21.9 °F 59% 29.98 in 10.0 mi NNW 17.3 mph 23.0 mph N/A   Mostly Cloudy
5:53 PM 34.0 °F 26.0 °F 21.9 °F 61% 30.00 in 10.0 mi NW 10.4 mph - N/A   Mostly Cloudy
6:53 PM 34.0 °F 26.0 °F 23.0 °F 64% 30.01 in 10.0 mi WNW 10.4 mph - N/A   Scattered Clouds
7:53 PM 33.8 °F 24.3 °F 21.2 °F 60% 29.98 in 10.0 mi NW 13.8 mph - N/A   Scattered Clouds
8:53 PM 34.0 °F 23.4 °F 23.0 °F 64% 30.02 in 10.0 mi NW 17.3 mph 25.3 mph N/A   Mostly Cloudy
9:53 PM 33.1 °F 22.6 °F 21.9 °F 64% 30.04 in 10.0 mi NW 16.1 mph 23.0 mph N/A   Mostly Cloudy
10:53 PM 32.0 °F 21.6 °F 24.1 °F 73% 30.05 in 10.0 mi NW 15.0 mph 20.7 mph N/A   Scattered Clouds
11:53 PM 33.1 °F 22.6 °F 25.0 °F 72% 30.05 in 10.0 mi NW 16.1 mph 24.2 mph N/A   Overcast